Regional Weather Roundup
Issued by NWS

Home | Current Version | Previous Version | Text Only | Print | Product List | Glossary On
Versions: 1 2 3 4 5 6 7 8 9 10 11 12 13 14 15 16 17 18 19 20 21 22 23 24 25 26 27 28 29 30 31 32 33 34 35 36 37 38 39 40 41 42 43 44 45 46 47 48 49 50
000
ASUS42 KTBW 280410
RWRFL
FLORIDA REGIONAL WEATHER ROUNDUP
NATIONAL WEATHER SERVICE TAMPA BAY RUSKIN FL
1100 PM EST THU NOV 27 2014

NOTE: "FAIR" INDICATES FEW OR NO CLOUDS BELOW 12,000 FEET WITH NO
SIGNIFICANT WEATHER AND/OR OBSTRUCTIONS TO VISIBILITY.


FLZ001>010-012>015-112-114-115-280500-
PANHANDLE FLORIDA

CITY           SKY/WX    TMP DP  RH WIND       PRES   REMARKS
PENSACOLA      CLEAR     44  32  62 N9        30.43S WCI  39
PENSACOLA NAS  CLEAR     45  32  60 N13       30.43S WCI  39
MILTON NAS     CLEAR     41  31  67 N6        30.44R WCI  37
CRESTVIEW      CLEAR     42  32  67 N5        30.45R WCI  39
DUKE FIELD     FAIR      41  32  69 N7        30.43R WCI  37
VALPARAISO     CLEAR     42  32  66 N7        30.43R WCI  38
MARY ESTHER    CLEAR     42  29  62 N10       30.42R WCI  35
TRI COUNTY     FAIR      42  32  67 N6        30.44R WCI  38
PANAMA CITY    FAIR      42  33  70 N8        30.40R WCI  37
TYNDALL AFB    CLEAR     47  35  63 N10       30.40R WCI  42
APALACHICOLA   CLEAR     49  33  54 N9        30.38R WCI  45

STATION/POSITION SKY/WX   TEMP    WIND        PRES    WAVE   SWELL
                          AIR SEA DIR/SP/G            HT/PER HT/PER
                          (F)     (DEG/KT/KT) (MB)    (FT/S) (FT/S)
30.1N   87.6W              51 64  360/ 19/ 23 1029.7R   3/ 4
29.2N   88.2W              57 71   20/ 19/ 23 1030.4R   5/ 6
28.7N   86.0W              60 75   20/ 19/ 25 1028.1R   7/ 6
PANAMA CITY BEAC           44 62  360/  9/ 12 1029.2S
CAPE SAN BLAS    NOT AVBL
TOWER C                    52     360/ 24/ 27 1027.7R
28.5N   84.5W              59 70  360/ 19/ 23 1027.1R   5/ 5

$$
FLZ011-016>038-118-127-128-134-139-239-280500-
NORTH FLORIDA

CITY           SKY/WX    TMP DP  RH WIND       PRES   REMARKS
MARIANNA       CLEAR     44  33  65 N7        30.41R WCI  40
TALLAHASSEE    CLEAR     44  33  65 N6        30.39R WCI  41
PERRY          CLEAR     45  34  66 N7        30.37R WCI  41
CROSS CITY       N/A     42  35  76 N6        30.34S WCI  38
LAKE CITY      FAIR      43  34  70 N7        30.34R WCI  39
GAINESVILLE    CLEAR     43  35  73 NW6       30.33R WCI  39
MAYPORT NAS    CLEAR     47  36  65 VRB6      30.32S WCI  44
JACKSONVILLE   CLEAR     43  35  73 NW8       30.33R WCI  38
JAX NAS        CLEAR     51  34  52 NW9       30.33S
JAX CRAIG      CLEAR     48  34  58 N10       30.32S WCI  43
JAX CECIL      CLEAR     41  34  75 N6        30.34R WCI  37
FERNANDINA BEA FAIR      50  37  62 NW8       30.31S
ST AUGUSTINE   CLEAR     47  35  63 NW12      30.32S WCI  42

STATION/POSITION SKY/WX   TEMP    WIND        PRES    WAVE   SWELL
                          AIR SEA DIR/SP/G            HT/PER HT/PER
                          (F)     (DEG/KT/KT) (MB)    (FT/S) (FT/S)
SHELL POINT                48     350/  9/ 11   N/A
KEATON BEACH               45     360/  6/ 10 1028.0R
CEDAR KEY                  50     360/ 10/ 13 1027.4R
FERNANDINA                 46 61  330/  7/  9 1026.3F
30.7N   81.3W                 62                N/A     3/ 5
MAYPORT                    46 62  340/  8/ 11   N/A
31.4N   80.9W              51 63  330/ 25/ 29 1025.4R   4/ 5   2/10
ST AUGUSTINE               50     340/ 19/ 23 1026.7S

$$
FLZ040-043>046-052-053-057-058-063-144-280500-
INTERIOR CENTRAL FLORIDA

CITY           SKY/WX    TMP DP  RH WIND       PRES   REMARKS
OCALA          CLEAR     45  34  65 CALM      30.32R
THE VILLAGES     N/A     48  36  61 NW6       30.22R
LEESBURG       CLEAR     48  37  65 N10       30.32R WCI  43
SANFORD        CLEAR     51  37  58 N12       30.30R
ORLANDO EXEC   CLEAR     53  36  52 N13       30.29S
ORLANDO INTL   CLEAR     52  37  56 N17       30.29S
WINTER HAVEN   CLEAR    N/A N/A N/A N14       30.30R
LAKELAND       CLEAR     48  41  76 N9        30.30R WCI  44
BARTOW         FAIR      50  39  66 N8        30.30R
OKEECHOBEE     CLEAR     48  43  81 N7        30.25S

$$
FLZ041-047-054-059-064-141-147-280500-
EAST CENTRAL FLORIDA

CITY           SKY/WX    TMP DP  RH WIND       PRES   REMARKS
DAYTONA BEACH  CLEAR     50  37  61 N9        30.30R
DELAND         CLEAR    N/A N/A N/A N8        30.30F
JFK SPACE CTR  CLEAR     53  39  59 N13       30.27S
CAPE CANAVERAL CLEAR     54  41  60 NW13      30.26R
PATRICK AFB    CLEAR     56  41  56 N20G28    30.26S
MELBOURNE      CLEAR     54  37  52 NW13      30.26R
VERO BEACH     CLEAR     53  40  61 NW10      30.24R
FT PIERCE      CLEAR     56  40  55 NW9       30.23R
STUART         CLEAR     55  43  62 NW10      30.23S

STATION/POSITION SKY/WX   TEMP    WIND        PRES    WAVE   SWELL
                          AIR SEA DIR/SP/G            HT/PER HT/PER
                          (F)     (DEG/KT/KT) (MB)    (FT/S) (FT/S)
28.5N   80.2W              62 75  340/ 19/ 25 1023.6R
28.9N   78.5W              65 77  330/ 19/ 25 1021.8F   9/ 8   5/14
TRIDENT PIER               56 69  320/ 12/ 16 1024.3R
28.4N   80.5W                 69                N/A     2/ 9
27.6N   80.2W                 76                N/A     5/ 5

$$
FLZ050-056-061-142-242-148-248-149-249-151-251-155-255-
160-260-280500-
WEST CENTRAL FLORIDA

CITY           SKY/WX    TMP DP  RH WIND       PRES   REMARKS
CRYSTAL RIVER  FAIR      43  37  81 CALM      30.33S
INVERNESS      FAIR      46  37  71 N3        30.33S
BROOKSVILLE    CLEAR     48  37  65 N5        30.33R
ZEPHYRHILLS    FAIR      46  36  66 N7        30.32R WCI  43
CLEARWATER     CLEAR     56  41  57 N16G26    30.30R
TAMPA INTL     CLEAR     54  38  54 N13       30.31R
TAMPA EXEC     CLEAR     52  41  66 N5        30.31S
PLANT CITY     CLEAR     52  39  62 N7        30.32R
MACDILL AFB    CLEAR     53  41  64 NE13G21   30.30R
PETER O KNIGHT CLEAR     55  39  54 N10G16    30.31R
ST PETERSBURG  CLEAR     57  42  57 N17       30.28R
SARASOTA       CLEAR     56  43  61 N9        30.27S
VENICE         FAIR      54  45  71 N7        30.29S

STATION/POSITION SKY/WX   TEMP    WIND        PRES    WAVE   SWELL
                          AIR SEA DIR/SP/G            HT/PER HT/PER
                          (F)     (DEG/KT/KT) (MB)    (FT/S) (FT/S)
CEDAR KEY                  50     360/ 10/ 13 1027.4R
28.5N   84.5W              59 70  360/ 19/ 23 1027.1R   5/ 5
27.3N   84.3W                 78                N/A     7/ 7
CLEARWATER BEACH           58 63   10/ 21/ 25 1025.8R
MIDDLE TAMPA BAY           59      30/ 23/ 28 1025.8R
VENICE                     55 67  360/  9/ 11 1025.1R

$$
FLZ066-069-070-075>078-162-262-165-265-280500-
SOUTHWEST FLORIDA AND KEYS

CITY           SKY/WX    TMP DP  RH WIND       PRES   REMARKS
PUNTA GORDA    CLEAR     53  44  71 N12       30.28S
FT MYERS       CLEAR     55  43  63 N10       30.25F
SOUTHWEST INTL CLEAR     54  42  64 N8        30.26S
NAPLES         CLEAR     56  40  55 N12G18    30.25R
MARCO ISLAND   CLEAR     57  37  47 N10G18    30.24R
MARATHON       CLEAR     67  59  75 N12       30.19F
KEY WEST NAS   CLEAR     66  32  28 N18       30.20S
KEY WEST INTL  CLEAR     68  58  70 N13G22    30.21S

STATION/POSITION SKY/WX   TEMP    WIND        PRES    WAVE   SWELL
                          AIR SEA DIR/SP/G            HT/PER HT/PER
                          (F)     (DEG/KT/KT) (MB)    (FT/S) (FT/S)
VENICE                     55 67  360/  9/ 11 1025.1R
NAPLES                     58 73   10/ 11/ 14 1024.6S
26.0N   85.6W              69 79  360/ 19/ 25 1025.3R   4/ 5   2/ 8
DRY TORTUGAS               70      10/ 18/ 21 1023.4S
NW FL BAY                  68      10/ 10/ 13 1022.8R
SAND KEY                   69     360/ 20/ 23 1022.7F
SOMBRERO KEY               69      10/ 15/ 17 1022.6F
LONG KEY                   67 70   10/ 10/ 12 1023.4R
MOLASSES REEF              69 77  360/ 15/ 17 1021.8F

$$
FLZ067-068-071>074-168-172>174-280500-
SOUTHEAST FLORIDA

CITY           SKY/WX    TMP DP  RH WIND       PRES   REMARKS
W PALM BEACH   CLEAR     58  46  64 NW12      30.20S
FT LAUDER-EXEC CLEAR     61  48  62 NW10      30.20S
FT LAUDERDALE  CLEAR     62  51  67 N10       30.20R
POMPANO BEACH  CLEAR     62  45  53 NW14      30.20S
PEMBROKE PINES CLEAR     60  53  77 N10       30.21S
OPA LOCKA      CLEAR     62  51  67 N13G18    30.21S
MIAMI          CLEAR     63  50  62 NW7       30.21S
WEST KENDALL   CLEAR     60  52  74 N14       30.21S
HOMESTEAD      CLEAR     61  51  70 N10       30.20S

STATION/POSITION SKY/WX   TEMP    WIND        PRES    WAVE   SWELL
                          AIR SEA DIR/SP/G            HT/PER HT/PER
                          (F)     (DEG/KT/KT) (MB)    (FT/S) (FT/S)
PORT EVERGLADES            64     320/  9/ 13 1022.4
VIRGINIA KEY               65 73  330/  7/ 12 1022.8F
LAKE WORTH                 61 77  320/  9/ 13 1022.3F
SETTLEMENT POINT           69     360/ 17/ 19 1022.2S

$$



USA.gov is the U.S. government's official web portal to all federal, state and local government web resources and services.